Theta_e
312 311 312 311 309 311 311 311 311 311 311 312 310 311 310 312 312 312 313 314 314 314 313 313 315 325 328 330 330 331 330 330 331 328 322 329 331 331 329 329 331 334 331 332
311 311 311 311 311 311 310 310 310 311 311 310 311 310 310 310 311 313 314 313 314 314 314 313 313 314 322 327 329 330 331 331 330 328 326 325 324 331 330 330 333 332 330 327
311 312 312 312 311 311 309 310 309 310 311 311 310 306 309 310 312 313 314 314 314 314 315 313 313 313 313 320 327 329 332 332 331 330 330 332 331 331 329 329 329 330 328 328
311 311 312 311 310 310 310 311 310 310 308 307 306 304 307 306 308 309 312 313 314 313 314 314 314 313 313 313 314 323 327 330 331 332 332 332 331 328 328 326 327 328 328 328
311 310 310 311 311 309 310 309 310 310 310 308 310 306 305 308 310 309 310 312 311 312 313 312 312 312 312 312 312 312 313 320 328 329 330 331 331 330 327 327 326 326 326 326
309 309 310 311 309 310 309 309 309 308 308 307 306 305 305 309 309 309 309 311 312 312 312 311 311 310 311 310 311 311 310 310 311 319 326 327 329 329 327 326 325 325 326 325
309 310 309 309 309 309 309 308 309 309 308 308 306 307 306 309 309 308 308 311 311 311 311 310 310 310 310 311 312 312 311 310 309 309 313 322 325 328 327 326 325 326 325 325
309 310 308 308 309 309 308 307 308 308 311 308 306 308 309 308 308 311 312 312 311 311 311 311 311 311 311 311 312 313 313 312 310 310 310 314 321 326 325 324 324 323 322 321
308 310 308 308 309 309 309 309 309 307 298 307 306 306 307 307 306 309 311 311 312 312 312 311 311 310 310 311 312 313 313 313 312 311 312 313 316 319 324 322 320 319 319 319
308 310 308 308 308 308 309 307 309 307 304 304 306 307 306 307 306 305 309 310 311 311 310 310 310 310 310 311 311 312 314 314 314 314 314 313 314 315 319 321 317 318 318 318
309 310 309 308 308 309 308 308 308 309 307 307 307 307 304 307 307 305 306 311 311 310 310 309 309 309 309 310 310 311 312 313 313 313 313 313 313 313 312 312 311 310 310 310
309 308 309 308 307 307 308 308 308 310 309 308 309 306 308 307 306 306 307 311 311 310 309 309 309 309 309 309 310 310 311 311 311 311 311 311 310 310 310 310 309 307 306 305
309 309 309 310 308 308 309 308 308 308 306 307 307 306 306 307 307 308 309 311 310 309 309 308 308 308 309 309 310 310 310 310 310 310 310 310 309 307 306 305 303 302 301 300
310 310 310 309 308 307 309 308 307 308 308 307 307 307 308 307 308 309 310 311 310 309 308 308 307 308 308 309 309 309 309 309 309 308 307 306 304 303 302 301 299 298 298 297
309 308 308 310 311 309 308 309 308 308 309 309 309 307 307 307 308 309 310 310 310 308 307 307 307 307 307 307 308 308 308 306 305 304 303 302 301 300 299 298 298 297 297 297
308 304 308 309 310 310 309 308 309 309 308 308 305 306 306 309 309 310 310 310 309 309 308 307 307 307 307 307 307 306 305 304 302 301 300 300 299 298 297 297 297 297 297 297
309 307 306 308 308 307 308 308 308 308 308 308 308 308 306 306 307 309 310 310 310 309 308 308 308 307 307 306 305 304 302 301 300 299 298 298 297 297 297 297 297 296 296 296
306 306 305 308 304 308 308 306 308 308 307 307 307 306 307 308 310 311 311 311 310 310 309 308 308 307 306 304 302 301 300 299 298 298 297 297 297 296 296 296 296 296 296 295
306 306 306 304 295 305 308 305 307 307 308 307 307 306 307 308 309 309 310 311 311 311 310 309 308 307 305 302 301 299 299 298 297 297 296 296 296 296 295 295 295 295 294 293
305 308 309 304 306 307 308 305 307 307 309 305 307 305 306 307 306 305 310 311 311 310 310 308 307 305 303 300 299 298 297 297 296 296 296 295 295 295 294 294 293 292 292 291
310 308 311 312 313 305 304 305 308 308 309 302 306 307 307 307 308 309 309 309 310 310 309 307 306 304 301 298 297 296 296 296 295 295 294 294 294 294 293 292 291 291 290 290
311 312 312 310 312 310 301 305 308 305 302 303 307 308 308 308 308 309 309 309 309 308 306 305 304 300 297 296 296 296 296 295 295 294 294 293 293 292 291 290 290 289 289 289
308 305 307 307 306 302 302 304 305 304 304 304 305 307 308 308 308 308 308 307 307 307 305 304 301 298 296 296 295 295 295 295 294 293 293 292 291 290 290 289 289 289 288 288
301 299 302 302 301 301 303 304 303 303 303 303 303 305 307 307 307 306 306 305 305 304 303 301 297 296 296 295 295 294 294 294 293 292 292 291 290 289 289 289 288 288 288 288
301 300 300 299 299 301 302 303 303 303 303 303 302 302 304 305 306 306 306 305 304 303 301 298 297 296 296 296 295 294 293 293 292 291 290 289 289 289 288 288 288 288 287 287
297 299 302 301 301 302 302 304 303 303 303 303 303 303 302 303 304 304 305 305 304 302 299 297 296 295 295 295 294 293 293 292 291 291 289 289 288 288 288 288 288 287 287 287
Wind_Speed
11 5 18 9 6 6 4 6 8 2 4 5 8 6 10 11 13 15 16 16 16 17 19 17 21 25 22 22 24 24 23 22 21 22 22 25 26 24 24 23 22 22 21 19
5 17 13 9 8 10 5 5 5 2 1 4 2 10 9 10 15 22 21 19 17 20 17 18 19 21 26 25 23 24 23 22 22 21 19 20 24 26 24 23 23 22 23 22
8 5 10 13 6 12 6 6 6 6 3 1 3 7 6 9 18 18 24 21 18 19 22 20 22 22 21 26 28 27 23 24 24 23 20 19 18 20 21 23 23 24 23 23
5 5 16 8 12 8 7 4 8 11 5 4 4 5 5 7 9 10 23 23 19 14 19 24 23 23 23 24 27 30 31 27 25 23 24 23 23 21 21 19 20 21 22 22
5 8 9 7 15 8 5 6 7 5 4 5 2 3 8 2 4 8 17 17 15 17 18 19 19 20 19 19 20 24 28 31 32 29 26 24 24 22 20 18 17 17 17 18
3 2 4 6 2 6 8 7 8 5 4 0 6 6 5 4 6 4 6 17 17 15 14 14 14 15 16 18 18 20 23 26 29 31 32 28 21 19 18 14 13 14 13 12
2 2 2 3 7 4 6 6 2 2 1 6 1 4 9 5 4 8 14 20 16 14 14 14 12 10 11 11 11 11 12 15 19 25 29 30 23 16 13 12 12 11 11 11
6 3 7 4 6 8 6 7 6 7 4 4 2 7 6 4 5 20 22 19 17 17 14 12 11 11 10 11 10 9 9 10 13 16 21 24 27 21 14 11 13 12 14 14
6 3 2 2 1 8 6 4 5 7 3 4 4 5 6 3 5 16 24 24 22 19 16 14 13 13 12 10 11 10 10 10 12 13 14 15 16 17 20 13 9 9 9 10
4 5 3 2 1 3 4 8 3 2 4 3 4 4 5 8 11 8 11 23 22 20 18 15 14 13 13 12 12 12 11 11 12 12 12 11 12 12 15 16 8 7 5 3
4 4 1 2 6 8 3 4 2 5 5 5 3 6 7 8 13 15 16 26 26 22 19 17 16 15 14 14 14 14 14 13 14 15 16 15 15 14 12 10 8 6 4 2
2 5 4 5 3 3 2 6 5 5 6 2 3 5 2 2 9 23 25 28 22 19 19 18 18 17 17 17 17 16 17 16 16 16 14 14 13 12 10 8 7 6 4 3
7 1 4 4 2 2 5 4 4 5 4 5 5 6 3 2 7 17 26 27 24 22 21 21 20 20 19 19 19 19 18 17 16 14 13 13 12 10 9 8 6 5 4 4
13 4 7 9 7 7 6 7 6 5 3 4 6 4 4 6 8 14 24 28 27 25 25 24 23 22 21 21 20 19 18 16 15 14 13 12 11 10 8 6 5 4 4 6
6 7 5 3 1 3 6 11 12 8 19 8 18 10 7 10 10 21 27 27 27 27 27 26 26 25 23 22 21 19 18 17 16 14 13 11 10 8 6 5 4 4 5 6
2 2 4 1 3 3 1 9 17 20 19 13 4 7 7 16 15 21 28 32 32 32 31 29 27 26 25 23 22 21 19 18 16 14 12 10 8 7 5 4 2 3 5 7
8 6 4 6 4 3 5 13 15 17 14 22 14 20 7 5 15 25 31 34 36 36 34 32 30 28 26 25 23 21 20 18 16 14 12 10 8 6 4 2 1 3 7 10
7 7 2 4 2 4 10 8 15 19 9 19 10 5 13 13 30 33 34 38 37 35 35 33 31 29 27 26 24 22 20 19 16 14 12 10 7 5 2 2 5 8 12 15
3 5 4 6 4 6 6 6 8 10 15 8 19 6 10 10 15 14 31 31 32 35 35 33 31 30 28 26 24 23 21 19 17 14 11 9 6 3 3 6 9 12 15 17
2 2 4 3 6 10 2 5 12 8 15 11 16 10 11 17 7 6 28 30 30 29 30 31 30 30 29 28 26 24 22 20 17 14 11 7 5 4 7 9 12 14 16 17
5 0 13 9 5 8 4 6 14 8 7 3 11 20 23 11 14 20 23 24 24 27 29 30 31 32 31 29 28 25 22 19 16 12 9 6 5 7 10 11 12 14 16 19
11 11 6 5 9 14 10 3 12 4 5 6 4 9 24 25 14 14 19 25 29 31 31 31 32 33 32 29 27 24 22 18 14 10 7 6 8 10 9 10 11 14 16 18
3 4 6 9 5 2 16 2 7 8 10 7 6 7 13 19 17 19 22 24 27 28 30 32 34 35 32 30 27 23 20 16 12 10 9 9 9 9 8 10 11 13 15 18
2 2 3 4 3 1 12 7 8 7 6 5 4 5 10 15 17 20 22 26 28 29 32 34 35 34 32 29 26 22 18 15 13 11 10 10 10 8 9 11 12 13 15 17
3 7 4 2 4 2 5 11 7 5 4 4 4 5 9 13 17 20 24 27 29 31 33 34 34 32 30 28 24 20 18 15 13 13 13 12 11 10 11 12 12 13 15 18
5 6 4 4 8 4 4 10 10 8 7 6 7 8 12 14 17 21 24 26 29 31 33 34 33 32 29 26 23 20 18 16 15 16 15 14 14 14 14 13 12 14 17 18
Wind_Direction
187 162 203 192 147 232 200 203 182 166 163 136 201 224 221 202 194 195 208 214 209 213 226 226 211 209 207 215 219 227 234 236 240 243 230 226 229 231 234 237 238 238 240 246
171 213 183 171 189 232 210 215 199 4 102 135 187 250 245 216 213 209 209 210 215 223 212 212 206 208 212 213 219 228 234 241 244 247 249 248 243 237 238 239 239 241 242 247
183 203 157 177 193 215 195 187 199 164 166 85 98 291 235 239 229 216 222 218 219 228 209 199 196 202 205 208 213 216 223 234 246 253 253 247 246 236 237 239 240 243 249 251
190 207 184 171 198 168 203 199 158 141 126 196 146 261 281 236 223 210 220 211 194 178 186 189 190 199 205 212 215 220 219 221 231 242 246 240 232 235 239 242 250 248 253 254
189 173 170 186 197 166 190 140 149 136 107 102 222 105 269 111 183 207 199 194 184 181 186 180 190 202 209 219 224 225 224 222 223 226 234 242 244 246 252 252 249 254 257 258
151 158 142 181 100 149 136 91 44 49 82 131 222 155 275 212 193 184 160 168 165 176 190 196 205 214 226 231 229 229 229 225 222 223 229 234 231 235 248 255 258 255 255 257
92 71 281 155 85 28 113 109 56 27 5 221 332 160 242 252 179 187 160 156 160 175 188 193 194 194 196 195 198 203 208 212 211 213 219 229 230 218 225 235 241 233 241 253
151 201 180 184 168 174 167 151 145 174 183 220 12 221 250 226 201 160 157 154 156 160 168 174 166 168 172 165 163 163 162 173 186 200 207 215 225 223 207 216 231 242 248 253
150 181 63 65 22 156 206 171 154 102 17 79 213 280 301 122 86 137 148 154 156 164 172 174 164 164 164 159 151 154 153 161 163 176 190 200 209 215 210 201 212 214 222 231
181 107 23 323 35 354 187 153 103 19 131 234 267 266 230 204 187 169 163 162 166 168 171 170 167 164 160 160 155 149 143 140 138 145 159 171 182 191 200 218 177 169 178 202
125 95 271 132 205 173 159 183 160 121 143 165 163 252 222 213 195 186 179 178 174 171 173 170 166 163 159 153 151 148 143 139 134 131 129 128 127 125 127 129 128 122 114 106
121 113 138 209 277 271 320 196 153 170 203 215 157 263 219 310 209 177 180 183 180 178 173 170 167 163 160 156 151 146 142 140 134 129 128 128 127 126 128 125 120 110 101 84
175 119 92 16 346 307 221 223 176 108 84 194 144 256 326 344 115 170 168 177 179 178 174 171 168 166 163 157 156 153 147 147 142 140 141 135 134 133 130 124 115 99 71 39
144 142 159 182 192 141 198 190 185 139 133 171 223 192 227 207 171 161 170 179 178 178 177 174 172 169 167 163 161 157 155 154 149 149 147 145 139 136 127 115 101 79 52 28
129 183 156 13 17 184 166 182 180 193 220 176 234 192 218 203 191 181 176 175 176 180 182 181 177 175 172 168 165 164 164 160 157 157 154 151 143 135 121 105 82 52 27 3
76 222 120 44 356 58 65 215 192 207 224 231 108 251 193 204 185 178 184 182 184 188 189 187 185 181 179 175 173 171 172 168 163 164 163 154 145 134 128 114 78 18 350 337
149 137 128 227 153 70 328 216 196 213 215 210 215 230 167 179 185 187 189 196 197 195 192 191 191 189 185 182 181 178 175 172 169 168 164 157 154 150 146 143 333 329 329 327
146 123 84 136 90 175 248 171 195 207 214 222 237 160 183 193 207 211 208 204 203 199 197 197 195 191 189 185 181 180 177 174 171 172 172 167 164 168 188 292 312 319 321 321
177 132 133 147 192 293 255 201 166 179 241 209 225 185 191 189 194 213 216 217 215 207 205 203 200 197 191 188 184 182 178 177 177 177 175 176 185 211 271 297 307 312 315 317
39 105 164 128 167 212 304 191 162 107 265 194 195 181 170 155 184 220 206 209 212 212 210 203 198 195 192 186 184 183 183 180 179 180 181 191 216 258 288 303 310 315 319 323
174 19 196 206 231 277 237 158 142 155 257 223 214 204 179 190 214 208 201 202 209 209 203 198 197 194 189 186 184 183 183 181 183 187 196 216 257 285 298 305 311 318 321 323
178 177 183 181 213 250 167 97 163 203 142 157 160 196 198 205 201 187 193 200 196 194 190 193 189 185 185 185 184 184 186 185 189 198 217 247 272 285 293 306 316 320 320 319
182 196 170 186 208 225 181 103 165 161 146 150 159 182 198 193 184 186 190 192 190 191 190 189 188 184 184 184 185 187 190 193 200 214 233 254 268 278 291 301 307 310 315 324
303 207 157 90 285 34 165 128 140 133 123 129 148 173 181 184 187 188 188 189 189 190 189 187 186 187 186 185 188 191 199 203 214 228 244 250 252 262 279 293 300 313 324 329
176 140 161 351 308 359 203 211 192 183 180 181 171 185 195 199 198 199 194 194 193 191 189 189 190 192 192 192 193 199 207 215 226 237 241 241 244 257 273 284 297 313 319 319
185 169 171 205 195 123 167 207 225 229 237 239 237 226 217 220 217 207 205 201 197 194 193 194 195 196 196 198 204 210 218 227 236 239 239 239 246 257 267 278 286 297 303 308